Year,Month,Day,Hour,Minute,Value (Times are PST for temperature in C)
2019,05,26,00,00,10.10
2019,05,26,00,01,10.10
2019,05,26,00,02,10.10
2019,05,26,00,03,10.10
2019,05,26,00,04,10.10
2019,05,26,00,05,10.10
2019,05,26,00,06,10.10
2019,05,26,00,07,10.10
2019,05,26,00,08,10.10
2019,05,26,00,09,10.10
2019,05,26,00,10,10.10
2019,05,26,00,11,10.10
2019,05,26,00,12,10.10
2019,05,26,00,13,10.10
2019,05,26,00,14,10.10
2019,05,26,00,15,10.10
2019,05,26,00,16,10.10
2019,05,26,00,17,10.10
2019,05,26,00,18,10.10
2019,05,26,00,19,10.10
2019,05,26,00,20,10.10
2019,05,26,00,21,10.10
2019,05,26,00,22,10.10
2019,05,26,00,23,10.10
2019,05,26,00,24,10.10
2019,05,26,00,25,10.10
2019,05,26,00,26,10.10
2019,05,26,00,27,10.10
2019,05,26,00,28,10.10
2019,05,26,00,29,10.10
2019,05,26,00,30,10.10
2019,05,26,00,31,10.10
2019,05,26,00,32,10.10
2019,05,26,00,33,10.10
2019,05,26,00,34,10.10
2019,05,26,00,35,10.10
2019,05,26,00,36,10.10
2019,05,26,00,37,10.10
2019,05,26,00,38,10.10
2019,05,26,00,39,10.10
2019,05,26,00,40,10.10
2019,05,26,00,41,10.10
2019,05,26,00,42,10.10
2019,05,26,00,43,10.00
2019,05,26,00,44,9.90
2019,05,26,00,45,9.90
2019,05,26,00,46,9.90
2019,05,26,00,47,9.90
2019,05,26,00,48,9.90
2019,05,26,00,49,9.90
2019,05,26,00,50,9.90
2019,05,26,00,51,9.90
2019,05,26,00,52,9.90
2019,05,26,00,53,9.90
2019,05,26,00,54,9.90
2019,05,26,00,55,9.90
2019,05,26,00,56,9.90
2019,05,26,00,57,9.90
2019,05,26,00,58,9.90
2019,05,26,00,59,9.90
2019,05,26,01,00,9.90
2019,05,26,01,01,9.90
2019,05,26,01,02,9.90
2019,05,26,01,03,9.90
2019,05,26,01,04,9.90
2019,05,26,01,05,9.90
2019,05,26,01,06,9.80
2019,05,26,01,07,9.80
2019,05,26,01,08,9.80
2019,05,26,01,09,9.80
2019,05,26,01,10,9.70
2019,05,26,01,11,9.70
2019,05,26,01,12,9.70
2019,05,26,01,13,9.70
2019,05,26,01,14,9.70
2019,05,26,01,15,9.70
2019,05,26,01,16,9.70
2019,05,26,01,17,9.70
2019,05,26,01,18,9.70
2019,05,26,01,19,9.70
2019,05,26,01,20,9.60
2019,05,26,01,21,9.60
2019,05,26,01,22,9.60
2019,05,26,01,23,9.60
2019,05,26,01,24,9.60
2019,05,26,01,25,9.60
2019,05,26,01,26,9.50
2019,05,26,01,27,9.50
2019,05,26,01,28,9.50
2019,05,26,01,29,9.50
2019,05,26,01,30,9.50
2019,05,26,01,31,9.50
2019,05,26,01,32,9.40
2019,05,26,01,33,9.40
2019,05,26,01,34,9.40
2019,05,26,01,35,9.40
2019,05,26,01,36,9.40
2019,05,26,01,37,9.30
2019,05,26,01,38,9.30
2019,05,26,01,39,9.30
2019,05,26,01,40,9.30
2019,05,26,01,41,9.20
2019,05,26,01,42,9.20
2019,05,26,01,43,9.20
2019,05,26,01,44,9.20
2019,05,26,01,45,9.20
2019,05,26,01,46,9.10
2019,05,26,01,47,9.10
2019,05,26,01,48,9.10
2019,05,26,01,49,9.10
2019,05,26,01,50,9.20
2019,05,26,01,51,9.20
2019,05,26,01,52,9.20
2019,05,26,01,53,9.20
2019,05,26,01,54,9.20
2019,05,26,01,55,9.20
2019,05,26,01,56,9.20
2019,05,26,01,57,9.10
2019,05,26,01,58,9.10
2019,05,26,01,59,9.10
2019,05,26,02,00,9.10
2019,05,26,02,01,9.10
2019,05,26,02,02,9.10
2019,05,26,02,03,9.20
2019,05,26,02,04,9.20
2019,05,26,02,05,9.20
2019,05,26,02,06,9.20
2019,05,26,02,07,9.20
2019,05,26,02,08,9.30
2019,05,26,02,09,9.30
2019,05,26,02,10,9.30
2019,05,26,02,11,9.30
2019,05,26,02,12,9.20
2019,05,26,02,13,9.20
2019,05,26,02,14,9.20
2019,05,26,02,15,9.20
2019,05,26,02,16,9.20
2019,05,26,02,17,9.20
2019,05,26,02,18,9.20
2019,05,26,02,19,9.20
2019,05,26,02,20,9.20
2019,05,26,02,21,9.20
2019,05,26,02,22,9.20
2019,05,26,02,23,9.20
2019,05,26,02,24,9.20
2019,05,26,02,25,9.20
2019,05,26,02,26,9.20
2019,05,26,02,27,9.20
2019,05,26,02,28,9.20
2019,05,26,02,29,9.20
2019,05,26,02,30,9.10
2019,05,26,02,31,9.10
2019,05,26,02,32,9.10
2019,05,26,02,33,9.00
2019,05,26,02,34,9.00
2019,05,26,02,35,9.00
2019,05,26,02,36,9.00
2019,05,26,02,37,9.00
2019,05,26,02,38,9.00
2019,05,26,02,39,9.00
2019,05,26,02,40,9.00
2019,05,26,02,41,9.00
2019,05,26,02,42,9.00
2019,05,26,02,43,8.90
2019,05,26,02,44,8.90
2019,05,26,02,45,8.90
2019,05,26,02,46,8.90
2019,05,26,02,47,8.90
2019,05,26,02,48,8.90
2019,05,26,02,49,8.90
2019,05,26,02,50,9.00
2019,05,26,02,51,9.00
2019,05,26,02,52,9.00
2019,05,26,02,53,9.00
2019,05,26,02,54,9.00
2019,05,26,02,55,9.00
2019,05,26,02,56,9.00
2019,05,26,02,57,9.00
2019,05,26,02,58,9.00
2019,05,26,02,59,9.00
2019,05,26,03,00,9.00
2019,05,26,03,01,8.90
2019,05,26,03,02,8.90
2019,05,26,03,03,8.90
2019,05,26,03,04,8.90
2019,05,26,03,05,8.90
2019,05,26,03,06,8.80
2019,05,26,03,07,8.90
2019,05,26,03,08,8.90
2019,05,26,03,09,8.80
2019,05,26,03,10,8.80
2019,05,26,03,11,8.80
2019,05,26,03,12,8.70
2019,05,26,03,13,8.70
2019,05,26,03,14,8.70
2019,05,26,03,15,8.70
2019,05,26,03,16,8.70
2019,05,26,03,17,8.70
2019,05,26,03,18,8.60
2019,05,26,03,19,8.70
2019,05,26,03,20,8.70
2019,05,26,03,21,8.70
2019,05,26,03,22,8.70
2019,05,26,03,23,8.70
2019,05,26,03,24,8.70
2019,05,26,03,25,8.70
2019,05,26,03,26,8.80
2019,05,26,03,27,8.80
2019,05,26,03,28,8.80
2019,05,26,03,29,8.90
2019,05,26,03,30,8.90
2019,05,26,03,31,8.90
2019,05,26,03,32,8.90
2019,05,26,03,33,8.90
2019,05,26,03,34,8.90
2019,05,26,03,35,9.00
2019,05,26,03,36,9.00
2019,05,26,03,37,9.00
2019,05,26,03,38,9.00
2019,05,26,03,39,9.00
2019,05,26,03,40,9.00
2019,05,26,03,41,9.00
2019,05,26,03,42,9.00
2019,05,26,03,43,9.00
2019,05,26,03,44,9.00
2019,05,26,03,45,8.90
2019,05,26,03,46,8.90
2019,05,26,03,47,8.90
2019,05,26,03,48,8.90
2019,05,26,03,49,8.80
2019,05,26,03,50,8.80
2019,05,26,03,51,8.80
2019,05,26,03,52,8.70
2019,05,26,03,53,8.70
2019,05,26,03,54,8.70
2019,05,26,03,55,8.70
2019,05,26,03,56,8.70
2019,05,26,03,57,8.70
2019,05,26,03,58,8.70
2019,05,26,03,59,8.70
2019,05,26,04,00,8.70
2019,05,26,04,01,8.70
2019,05,26,04,02,8.70
2019,05,26,04,03,8.70
2019,05,26,04,04,8.70
2019,05,26,04,05,8.70
2019,05,26,04,06,8.70
2019,05,26,04,07,8.70
2019,05,26,04,08,8.70
2019,05,26,04,09,8.70
2019,05,26,04,10,8.70
2019,05,26,04,11,8.70
2019,05,26,04,12,8.70
2019,05,26,04,13,8.70
2019,05,26,04,14,8.70
2019,05,26,04,15,8.70
2019,05,26,04,16,8.70
2019,05,26,04,17,8.60
2019,05,26,04,18,8.60
2019,05,26,04,19,8.60
2019,05,26,04,20,8.60
2019,05,26,04,21,8.50
2019,05,26,04,22,8.50
2019,05,26,04,23,8.50
2019,05,26,04,24,8.50
2019,05,26,04,25,8.50
2019,05,26,04,26,8.50
2019,05,26,04,27,8.50
2019,05,26,04,28,8.40
2019,05,26,04,29,8.40
2019,05,26,04,30,8.40
2019,05,26,04,31,8.40
2019,05,26,04,32,8.30
2019,05,26,04,33,8.30
2019,05,26,04,34,8.30
2019,05,26,04,35,8.30
2019,05,26,04,36,8.20
2019,05,26,04,37,8.20
2019,05,26,04,38,8.20
2019,05,26,04,39,8.20
2019,05,26,04,40,8.20
2019,05,26,04,41,8.20
2019,05,26,04,42,8.20
2019,05,26,04,43,8.20
2019,05,26,04,44,8.20
2019,05,26,04,45,8.20
2019,05,26,04,46,8.20
2019,05,26,04,47,8.30
2019,05,26,04,48,8.30
2019,05,26,04,49,8.30
2019,05,26,04,50,8.30
2019,05,26,04,51,8.20
2019,05,26,04,52,8.20
2019,05,26,04,53,8.20
2019,05,26,04,54,8.20
2019,05,26,04,55,8.20
2019,05,26,04,56,8.20
2019,05,26,04,57,8.20
2019,05,26,04,58,8.20
2019,05,26,04,59,8.10
2019,05,26,05,00,8.10
2019,05,26,05,01,8.10
2019,05,26,05,02,8.10
2019,05,26,05,03,8.00
2019,05,26,05,04,8.10
2019,05,26,05,05,8.10
2019,05,26,05,06,8.10
2019,05,26,05,07,8.10
2019,05,26,05,08,8.00
2019,05,26,05,09,8.00
2019,05,26,05,10,8.00
2019,05,26,05,11,8.00
2019,05,26,05,12,8.00
2019,05,26,05,13,8.00
2019,05,26,05,14,8.00
2019,05,26,05,15,8.00
2019,05,26,05,16,8.00
2019,05,26,05,17,8.00
2019,05,26,05,18,8.00
2019,05,26,05,19,8.00
2019,05,26,05,20,8.10
2019,05,26,05,21,8.00
2019,05,26,05,22,8.00
2019,05,26,05,23,8.00
2019,05,26,05,24,8.00
2019,05,26,05,25,8.00
2019,05,26,05,26,7.90
2019,05,26,05,27,7.90
2019,05,26,05,28,7.90
2019,05,26,05,29,7.90
2019,05,26,05,30,7.90
2019,05,26,05,31,7.80
2019,05,26,05,32,7.80
2019,05,26,05,33,7.80
2019,05,26,05,34,7.80
2019,05,26,05,35,7.90
2019,05,26,05,36,7.90
2019,05,26,05,37,7.90
2019,05,26,05,38,7.90
2019,05,26,05,39,7.90
2019,05,26,05,40,7.90
2019,05,26,05,41,7.90
2019,05,26,05,42,7.90
2019,05,26,05,43,7.90
2019,05,26,05,44,7.90
2019,05,26,05,45,7.80
2019,05,26,05,46,7.80
2019,05,26,05,47,7.80
2019,05,26,05,48,7.80
2019,05,26,05,49,7.80
2019,05,26,05,50,7.80
2019,05,26,05,51,7.80
2019,05,26,05,52,7.80
2019,05,26,05,53,7.90
2019,05,26,05,54,7.90
2019,05,26,05,55,8.00
2019,05,26,05,56,8.10
2019,05,26,05,57,8.10
2019,05,26,05,58,8.20
2019,05,26,05,59,8.20
2019,05,26,06,00,8.20
2019,05,26,06,01,8.20
2019,05,26,06,02,8.20
2019,05,26,06,03,8.30
2019,05,26,06,04,8.30
2019,05,26,06,05,8.40
2019,05,26,06,06,8.40
2019,05,26,06,07,8.50
2019,05,26,06,08,8.50
2019,05,26,06,09,8.50
2019,05,26,06,10,8.60
2019,05,26,06,11,8.60
2019,05,26,06,12,8.70
2019,05,26,06,13,8.70
2019,05,26,06,14,8.70
2019,05,26,06,15,8.80
2019,05,26,06,16,8.80
2019,05,26,06,17,8.90
2019,05,26,06,18,8.90
2019,05,26,06,19,9.00
2019,05,26,06,20,9.00
2019,05,26,06,21,9.00
2019,05,26,06,22,9.10
2019,05,26,06,23,9.10
2019,05,26,06,24,9.20
2019,05,26,06,25,9.20
2019,05,26,06,26,9.20
2019,05,26,06,27,9.20
2019,05,26,06,28,9.30
2019,05,26,06,29,9.40
2019,05,26,06,30,9.40
2019,05,26,06,31,9.50
2019,05,26,06,32,9.50
2019,05,26,06,33,9.50
2019,05,26,06,34,9.50
2019,05,26,06,35,9.40
2019,05,26,06,36,9.40
2019,05,26,06,37,9.40
2019,05,26,06,38,9.30
2019,05,26,06,39,9.30
2019,05,26,06,40,9.30
2019,05,26,06,41,9.30
2019,05,26,06,42,9.30
2019,05,26,06,43,9.30
2019,05,26,06,44,9.30
2019,05,26,06,45,9.30
2019,05,26,06,46,9.30
2019,05,26,06,47,9.40
2019,05,26,06,48,9.40
2019,05,26,06,49,9.40
2019,05,26,06,50,9.40
2019,05,26,06,51,9.50
2019,05,26,06,52,9.50
2019,05,26,06,53,9.60
2019,05,26,06,54,9.60
2019,05,26,06,55,9.70
2019,05,26,06,56,9.70
2019,05,26,06,57,9.70
2019,05,26,06,58,9.80
2019,05,26,06,59,9.80
2019,05,26,07,00,9.90
2019,05,26,07,01,9.90
2019,05,26,07,02,10.00
2019,05,26,07,03,10.10
2019,05,26,07,04,10.10
2019,05,26,07,05,10.20
2019,05,26,07,06,10.20
2019,05,26,07,07,10.30
2019,05,26,07,08,10.30
2019,05,26,07,09,10.40
2019,05,26,07,10,10.40
2019,05,26,07,11,10.40
2019,05,26,07,12,10.40
2019,05,26,07,13,10.40
2019,05,26,07,14,10.40
2019,05,26,07,15,10.40
2019,05,26,07,16,10.40
2019,05,26,07,17,10.40
2019,05,26,07,18,10.50
2019,05,26,07,19,10.60
2019,05,26,07,20,10.60
2019,05,26,07,21,10.60
2019,05,26,07,22,10.60
2019,05,26,07,23,10.70
2019,05,26,07,24,10.70
2019,05,26,07,25,10.80
2019,05,26,07,26,10.80
2019,05,26,07,27,10.90
2019,05,26,07,28,10.90
2019,05,26,07,29,10.90
2019,05,26,07,30,10.90
2019,05,26,07,31,11.00
2019,05,26,07,32,11.10
2019,05,26,07,33,11.10
2019,05,26,07,34,11.10
2019,05,26,07,35,11.10
2019,05,26,07,36,11.10
2019,05,26,07,37,11.10
2019,05,26,07,38,11.10
2019,05,26,07,39,11.10
2019,05,26,07,40,11.20
2019,05,26,07,41,11.20
2019,05,26,07,42,11.30
2019,05,26,07,43,11.40
2019,05,26,07,44,11.40
2019,05,26,07,45,11.40
2019,05,26,07,46,11.50
2019,05,26,07,47,11.60
2019,05,26,07,48,11.60
2019,05,26,07,49,11.70
2019,05,26,07,50,11.80
2019,05,26,07,51,11.80
2019,05,26,07,52,11.80
2019,05,26,07,53,11.90
2019,05,26,07,54,12.00
2019,05,26,07,55,12.00
2019,05,26,07,56,12.10
2019,05,26,07,57,12.20
2019,05,26,07,58,12.30
2019,05,26,07,59,12.30
2019,05,26,08,00,12.40
2019,05,26,08,01,12.40
2019,05,26,08,02,12.50
2019,05,26,08,03,12.60
2019,05,26,08,04,12.70
2019,05,26,08,05,12.70
2019,05,26,08,06,12.80
2019,05,26,08,07,12.80
2019,05,26,08,08,12.90
2019,05,26,08,09,13.00
2019,05,26,08,10,13.10
2019,05,26,08,11,13.20
2019,05,26,08,12,13.30
2019,05,26,08,13,13.30
2019,05,26,08,14,13.40
2019,05,26,08,15,13.50
2019,05,26,08,16,13.60
2019,05,26,08,17,13.70
2019,05,26,08,18,13.80
2019,05,26,08,19,13.90
2019,05,26,08,20,13.90
2019,05,26,08,21,14.00
2019,05,26,08,22,14.00
2019,05,26,08,23,14.10
2019,05,26,08,24,14.20
2019,05,26,08,25,14.20
2019,05,26,08,26,14.30
2019,05,26,08,27,14.50
2019,05,26,08,28,14.60
2019,05,26,08,29,14.60
2019,05,26,08,30,14.60
2019,05,26,08,31,14.60
2019,05,26,08,32,14.50
2019,05,26,08,33,14.50
2019,05,26,08,34,14.60
2019,05,26,08,35,14.70
2019,05,26,08,36,14.80
2019,05,26,08,37,14.90
2019,05,26,08,38,14.90
2019,05,26,08,39,14.70
2019,05,26,08,40,14.60
2019,05,26,08,41,14.50
2019,05,26,08,42,14.50
2019,05,26,08,43,14.40
2019,05,26,08,44,14.30
2019,05,26,08,45,14.30
2019,05,26,08,46,14.20
2019,05,26,08,47,14.20
2019,05,26,08,48,14.20
2019,05,26,08,49,14.20
2019,05,26,08,50,14.20
2019,05,26,08,51,14.10
2019,05,26,08,52,14.00
2019,05,26,08,53,13.90
2019,05,26,08,54,13.90
2019,05,26,08,55,13.80
2019,05,26,08,56,13.70
2019,05,26,08,57,13.70
2019,05,26,08,58,13.70
2019,05,26,08,59,13.70
2019,05,26,09,00,13.60
2019,05,26,09,01,13.60
2019,05,26,09,02,13.60
2019,05,26,09,03,13.60
2019,05,26,09,04,13.60
2019,05,26,09,05,13.60
2019,05,26,09,06,13.70
2019,05,26,09,07,13.70
2019,05,26,09,08,13.70
2019,05,26,09,09,13.70
2019,05,26,09,10,13.80
2019,05,26,09,11,13.80
2019,05,26,09,12,13.90
2019,05,26,09,13,14.00
2019,05,26,09,14,14.00
2019,05,26,09,15,14.00
2019,05,26,09,16,14.00
2019,05,26,09,17,14.10
2019,05,26,09,18,14.10
2019,05,26,09,19,14.10
2019,05,26,09,20,14.10
2019,05,26,09,21,14.10
2019,05,26,09,22,14.20
2019,05,26,09,23,14.10
2019,05,26,09,24,13.90
2019,05,26,09,25,13.70
2019,05,26,09,26,13.50
2019,05,26,09,27,13.50
2019,05,26,09,28,13.40
2019,05,26,09,29,13.30
2019,05,26,09,30,13.10
2019,05,26,09,31,13.10
2019,05,26,09,32,13.10
2019,05,26,09,33,13.10
2019,05,26,09,34,13.00
2019,05,26,09,35,13.00
2019,05,26,09,36,13.00
2019,05,26,09,37,13.00
2019,05,26,09,38,13.10
2019,05,26,09,39,13.10
2019,05,26,09,40,13.30
2019,05,26,09,41,13.30
2019,05,26,09,42,13.40
2019,05,26,09,43,13.50
2019,05,26,09,44,13.50
2019,05,26,09,45,13.60
2019,05,26,09,46,13.60
2019,05,26,09,47,13.70
2019,05,26,09,48,13.70
2019,05,26,09,49,13.70
2019,05,26,09,50,13.80
2019,05,26,09,51,13.90
2019,05,26,09,52,13.90
2019,05,26,09,53,13.90
2019,05,26,09,54,13.80
2019,05,26,09,55,13.80
2019,05,26,09,56,13.70
2019,05,26,09,57,13.70
2019,05,26,09,58,13.60
2019,05,26,09,59,13.50
2019,05,26,10,00,13.40
2019,05,26,10,01,13.40
2019,05,26,10,02,13.40
2019,05,26,10,03,13.30
2019,05,26,10,04,13.30
2019,05,26,10,05,13.30
2019,05,26,10,06,13.30
2019,05,26,10,07,13.30
2019,05,26,10,08,13.30
2019,05,26,10,09,13.30
2019,05,26,10,10,13.30
2019,05,26,10,11,13.30
2019,05,26,10,12,13.30
2019,05,26,10,13,13.20
2019,05,26,10,14,13.20
2019,05,26,10,15,13.10
2019,05,26,10,16,13.20
2019,05,26,10,17,13.30
2019,05,26,10,18,13.40
2019,05,26,10,19,13.50
2019,05,26,10,20,13.60
2019,05,26,10,21,13.60
2019,05,26,10,22,13.50
2019,05,26,10,23,13.50
2019,05,26,10,24,13.50
2019,05,26,10,25,13.50
2019,05,26,10,26,13.50
2019,05,26,10,27,13.60
2019,05,26,10,28,13.70
2019,05,26,10,29,13.70
2019,05,26,10,30,13.70
2019,05,26,10,31,13.80
2019,05,26,10,32,13.90
2019,05,26,10,33,13.90
2019,05,26,10,34,14.10
2019,05,26,10,35,14.20
2019,05,26,10,36,14.20
2019,05,26,10,37,14.40
2019,05,26,10,38,14.40
2019,05,26,10,39,14.50
2019,05,26,10,40,14.50
2019,05,26,10,41,14.50
2019,05,26,10,42,14.50
2019,05,26,10,43,14.50
2019,05,26,10,44,14.50
2019,05,26,10,45,14.40
2019,05,26,10,46,14.40
2019,05,26,10,47,14.20
2019,05,26,10,48,14.10
2019,05,26,10,49,13.90
2019,05,26,10,50,13.70
2019,05,26,10,51,13.70
2019,05,26,10,52,13.70
2019,05,26,10,53,13.70
2019,05,26,10,54,13.70
2019,05,26,10,55,13.60
2019,05,26,10,56,13.50
2019,05,26,10,57,13.50
2019,05,26,10,58,13.50
2019,05,26,10,59,13.50
2019,05,26,11,00,13.50
2019,05,26,11,01,13.60
2019,05,26,11,02,13.60
2019,05,26,11,03,13.60
2019,05,26,11,04,13.60
2019,05,26,11,05,13.60
2019,05,26,11,06,13.50
2019,05,26,11,07,13.50
2019,05,26,11,08,13.50
2019,05,26,11,09,13.50
2019,05,26,11,10,13.40
2019,05,26,11,11,13.50
2019,05,26,11,12,13.50
2019,05,26,11,13,13.60
2019,05,26,11,14,13.70
2019,05,26,11,15,13.70
2019,05,26,11,16,13.70
2019,05,26,11,17,13.70
2019,05,26,11,18,13.70
2019,05,26,11,19,13.60
2019,05,26,11,20,13.60
2019,05,26,11,21,13.70
2019,05,26,11,22,13.70
2019,05,26,11,23,13.70
2019,05,26,11,24,13.80
2019,05,26,11,25,13.80
2019,05,26,11,26,13.80
2019,05,26,11,27,13.80
2019,05,26,11,28,13.80
2019,05,26,11,29,13.80
2019,05,26,11,30,13.80
2019,05,26,11,31,13.80
2019,05,26,11,32,13.80
2019,05,26,11,33,13.80
2019,05,26,11,34,13.70
2019,05,26,11,35,13.70
2019,05,26,11,36,13.70
2019,05,26,11,37,13.60
2019,05,26,11,38,13.70
2019,05,26,11,39,13.70
2019,05,26,11,40,13.70
2019,05,26,11,41,13.70
2019,05,26,11,42,13.50
2019,05,26,11,43,13.40
2019,05,26,11,44,13.30
2019,05,26,11,45,13.30
2019,05,26,11,46,13.30
2019,05,26,11,47,13.30
2019,05,26,11,48,13.30
2019,05,26,11,49,13.30
2019,05,26,11,50,13.30
2019,05,26,11,51,13.30
2019,05,26,11,52,13.30
2019,05,26,11,53,13.20
2019,05,26,11,54,13.30
2019,05,26,11,55,13.20
2019,05,26,11,56,13.30
2019,05,26,11,57,13.30
2019,05,26,11,58,13.40
2019,05,26,11,59,13.50
2019,05,26,12,00,13.50
2019,05,26,12,01,13.50
2019,05,26,12,02,13.50
2019,05,26,12,03,13.50
2019,05,26,12,04,13.40
2019,05,26,12,05,13.30
2019,05,26,12,06,13.30
2019,05,26,12,07,13.10
2019,05,26,12,08,13.00
2019,05,26,12,09,12.90
2019,05,26,12,10,12.90
2019,05,26,12,11,12.90
2019,05,26,12,12,13.10
2019,05,26,12,13,13.20
2019,05,26,12,14,13.20
2019,05,26,12,15,13.30
2019,05,26,12,16,13.30
2019,05,26,12,17,13.30
2019,05,26,12,18,13.50
2019,05,26,12,19,13.50
2019,05,26,12,20,13.60
2019,05,26,12,21,13.70
2019,05,26,12,22,13.70
2019,05,26,12,23,13.70
2019,05,26,12,24,13.70
2019,05,26,12,25,13.70
2019,05,26,12,26,13.60
2019,05,26,12,27,13.60
2019,05,26,12,28,13.50
2019,05,26,12,29,13.40
2019,05,26,12,30,13.40
2019,05,26,12,31,13.40
2019,05,26,12,32,13.40
2019,05,26,12,33,13.40
2019,05,26,12,34,13.30
2019,05,26,12,35,13.30
2019,05,26,12,36,13.30
2019,05,26,12,37,13.30
2019,05,26,12,38,13.40
2019,05,26,12,39,13.40
2019,05,26,12,40,13.40
2019,05,26,12,41,13.30
2019,05,26,12,42,13.30
2019,05,26,12,43,13.30
2019,05,26,12,44,13.30
2019,05,26,12,45,13.30
2019,05,26,12,46,13.30
2019,05,26,12,47,13.30
2019,05,26,12,48,13.40
2019,05,26,12,49,13.50
2019,05,26,12,50,13.60
2019,05,26,12,51,13.80
2019,05,26,12,52,13.90
2019,05,26,12,53,14.00
2019,05,26,12,54,14.00
2019,05,26,12,55,14.00
2019,05,26,12,56,13.90
2019,05,26,12,57,13.80
2019,05,26,12,58,13.70
2019,05,26,12,59,13.70
2019,05,26,13,00,13.60
2019,05,26,13,01,13.60
2019,05,26,13,02,13.70
2019,05,26,13,03,13.70
2019,05,26,13,04,13.80
2019,05,26,13,05,13.80
2019,05,26,13,06,13.70
2019,05,26,13,07,13.70
2019,05,26,13,08,13.80
2019,05,26,13,09,13.80
2019,05,26,13,10,13.80
2019,05,26,13,11,13.70
2019,05,26,13,12,13.60
2019,05,26,13,13,13.50
2019,05,26,13,14,13.50
2019,05,26,13,15,13.50
2019,05,26,13,16,13.40
2019,05,26,13,17,13.40
2019,05,26,13,18,13.40
2019,05,26,13,19,13.40
2019,05,26,13,20,13.40
2019,05,26,13,21,13.40
2019,05,26,13,22,13.50
2019,05,26,13,23,13.50
2019,05,26,13,24,13.50
2019,05,26,13,25,13.50
2019,05,26,13,26,13.50
2019,05,26,13,27,13.50
2019,05,26,13,28,13.50
2019,05,26,13,29,13.50
2019,05,26,13,30,13.40
2019,05,26,13,31,13.30
2019,05,26,13,32,13.30
2019,05,26,13,33,13.20
2019,05,26,13,34,13.20
2019,05,26,13,35,13.10
2019,05,26,13,36,13.20
2019,05,26,13,37,13.20
2019,05,26,13,38,13.30
2019,05,26,13,39,13.30
2019,05,26,13,40,13.40
2019,05,26,13,41,13.40
2019,05,26,13,42,13.40
2019,05,26,13,43,13.30
2019,05,26,13,44,13.40
2019,05,26,13,45,13.50
2019,05,26,13,46,13.50
2019,05,26,13,47,13.50
2019,05,26,13,48,13.40
2019,05,26,13,49,13.40
2019,05,26,13,50,13.40
2019,05,26,13,51,13.50
2019,05,26,13,52,13.50
2019,05,26,13,53,13.60
2019,05,26,13,54,13.70
2019,05,26,13,55,13.70
2019,05,26,13,56,13.70
2019,05,26,13,57,13.80
2019,05,26,13,58,13.80
2019,05,26,13,59,13.90
2019,05,26,14,00,14.00
2019,05,26,14,01,14.10
2019,05,26,14,02,14.20
2019,05,26,14,03,14.20
2019,05,26,14,04,14.40
2019,05,26,14,05,14.50
2019,05,26,14,06,14.70
2019,05,26,14,07,14.70
2019,05,26,14,08,14.80
2019,05,26,14,09,14.90
2019,05,26,14,10,15.00
2019,05,26,14,11,15.10
2019,05,26,14,12,15.10
2019,05,26,14,13,15.20
2019,05,26,14,14,15.20
2019,05,26,14,15,15.30
2019,05,26,14,16,15.30
2019,05,26,14,17,15.30
2019,05,26,14,18,15.30
2019,05,26,14,19,15.30
2019,05,26,14,20,15.30
2019,05,26,14,21,15.30
2019,05,26,14,22,15.40
2019,05,26,14,23,15.50
2019,05,26,14,24,15.60
2019,05,26,14,25,15.80
2019,05,26,14,26,15.90
2019,05,26,14,27,15.90
2019,05,26,14,28,16.00
2019,05,26,14,29,16.10
2019,05,26,14,30,16.10
2019,05,26,14,31,16.20
2019,05,26,14,32,16.20
2019,05,26,14,33,16.20
2019,05,26,14,34,16.20
2019,05,26,14,35,16.20
2019,05,26,14,36,16.20
2019,05,26,14,37,16.10
2019,05,26,14,38,16.10
2019,05,26,14,39,16.10
2019,05,26,14,40,16.10
2019,05,26,14,41,16.00
2019,05,26,14,42,15.80
2019,05,26,14,43,15.80
2019,05,26,14,44,15.80
2019,05,26,14,45,15.80
2019,05,26,14,46,15.80
2019,05,26,14,47,15.80
2019,05,26,14,48,15.80
2019,05,26,14,49,15.90
2019,05,26,14,50,16.00
2019,05,26,14,51,16.20
2019,05,26,14,52,16.20
2019,05,26,14,53,16.10
2019,05,26,14,54,16.10
2019,05,26,14,55,16.10
2019,05,26,14,56,16.10
2019,05,26,14,57,16.20
2019,05,26,14,58,16.30
2019,05,26,14,59,16.30
2019,05,26,15,00,16.20
2019,05,26,15,01,16.10
2019,05,26,15,02,16.20
2019,05,26,15,03,16.20
2019,05,26,15,04,16.30
2019,05,26,15,05,16.20
2019,05,26,15,06,16.10
2019,05,26,15,07,16.10
2019,05,26,15,08,16.10
2019,05,26,15,09,16.00
2019,05,26,15,10,15.90
2019,05,26,15,11,15.90
2019,05,26,15,12,15.90
2019,05,26,15,13,16.00
2019,05,26,15,14,15.90
2019,05,26,15,15,15.90
2019,05,26,15,16,15.80
2019,05,26,15,17,15.80
2019,05,26,15,18,15.80
2019,05,26,15,19,15.80
2019,05,26,15,20,15.80
2019,05,26,15,21,15.70
2019,05,26,15,22,15.60
2019,05,26,15,23,15.50
2019,05,26,15,24,15.50
2019,05,26,15,25,15.50
2019,05,26,15,26,15.40
2019,05,26,15,27,15.50
2019,05,26,15,28,15.60
2019,05,26,15,29,15.60
2019,05,26,15,30,15.80
2019,05,26,15,31,15.80
2019,05,26,15,32,15.90
2019,05,26,15,33,16.10
2019,05,26,15,34,16.20
2019,05,26,15,35,16.40
2019,05,26,15,36,16.40
2019,05,26,15,37,16.40
2019,05,26,15,38,16.40
2019,05,26,15,39,16.60
2019,05,26,15,40,16.70
2019,05,26,15,41,16.80
2019,05,26,15,42,16.80
2019,05,26,15,43,16.80
2019,05,26,15,44,16.90
2019,05,26,15,45,16.90
2019,05,26,15,46,17.00
2019,05,26,15,47,17.00
2019,05,26,15,48,17.00
2019,05,26,15,49,17.00
2019,05,26,15,50,17.10
2019,05,26,15,51,17.10
2019,05,26,15,52,17.20
2019,05,26,15,53,17.20
2019,05,26,15,54,17.30
2019,05,26,15,55,17.30
2019,05,26,15,56,17.30
2019,05,26,15,57,17.20
2019,05,26,15,58,17.20
2019,05,26,15,59,17.30
2019,05,26,16,00,17.20
2019,05,26,16,01,17.20
2019,05,26,16,02,17.10
2019,05,26,16,03,17.00
2019,05,26,16,04,17.00
2019,05,26,16,05,17.00
2019,05,26,16,06,17.10
2019,05,26,16,07,17.10
2019,05,26,16,08,17.10
2019,05,26,16,09,17.10
2019,05,26,16,10,17.10
2019,05,26,16,11,17.10
2019,05,26,16,12,17.10
2019,05,26,16,13,17.00
2019,05,26,16,14,16.90
2019,05,26,16,15,16.80
2019,05,26,16,16,16.70
2019,05,26,16,17,16.60
2019,05,26,16,18,16.40
2019,05,26,16,19,16.40
2019,05,26,16,20,16.40
2019,05,26,16,21,16.40
2019,05,26,16,22,16.40
2019,05,26,16,23,16.30
2019,05,26,16,24,16.30
2019,05,26,16,25,16.30
2019,05,26,16,26,16.20
2019,05,26,16,27,16.10
2019,05,26,16,28,16.00
2019,05,26,16,29,15.90
2019,05,26,16,30,16.00
2019,05,26,16,31,16.10
2019,05,26,16,32,16.10
2019,05,26,16,33,16.10
2019,05,26,16,34,16.10
2019,05,26,16,35,16.10
2019,05,26,16,36,16.10
2019,05,26,16,37,16.10
2019,05,26,16,38,16.20
2019,05,26,16,39,16.20
2019,05,26,16,40,16.30
2019,05,26,16,41,16.40
2019,05,26,16,42,16.60
2019,05,26,16,43,16.80
2019,05,26,16,44,16.90
2019,05,26,16,45,17.10
2019,05,26,16,46,17.30
2019,05,26,16,47,17.30
2019,05,26,16,48,17.40
2019,05,26,16,49,17.50
2019,05,26,16,50,17.70
2019,05,26,16,51,17.80
2019,05,26,16,52,17.80
2019,05,26,16,53,17.90
2019,05,26,16,54,18.00
2019,05,26,16,55,18.20
2019,05,26,16,56,18.30
2019,05,26,16,57,18.30
2019,05,26,16,58,18.40
2019,05,26,16,59,18.50
2019,05,26,17,00,18.60
2019,05,26,17,01,18.70
2019,05,26,17,02,18.70
2019,05,26,17,03,18.80
2019,05,26,17,04,18.80
2019,05,26,17,05,18.90
2019,05,26,17,06,19.00
2019,05,26,17,07,19.10
2019,05,26,17,08,19.10
2019,05,26,17,09,18.90
2019,05,26,17,10,19.00
2019,05,26,17,11,19.10
2019,05,26,17,12,19.10
2019,05,26,17,13,19.20
2019,05,26,17,14,19.30
2019,05,26,17,15,19.40
2019,05,26,17,16,19.50
2019,05,26,17,17,19.50
2019,05,26,17,18,19.50
2019,05,26,17,19,19.50
2019,05,26,17,20,19.50
2019,05,26,17,21,19.60
2019,05,26,17,22,19.60
2019,05,26,17,23,19.50
2019,05,26,17,24,19.50
2019,05,26,17,25,19.50
2019,05,26,17,26,19.50
2019,05,26,17,27,19.50
2019,05,26,17,28,19.50
2019,05,26,17,29,19.40
2019,05,26,17,30,19.40
2019,05,26,17,31,19.40
2019,05,26,17,32,19.50
2019,05,26,17,33,19.50
2019,05,26,17,34,19.60
2019,05,26,17,35,19.70